ZHONGXING-2A

Last updated on Wed May 21 2025 00:02:43 GMT+0000 (Coordinated Universal Time)

1 38352U 12028A 25140.61986906 -.00000283 00000+0 00000+0 0 9993 2 38352 0.4372 90.2996 0001566 22.8001 86.8213 1.00269635 47365
UTC large
Height (km)
Speed (km/s)
/
Latitude / Longitude
Inclination (degrees)
Orbital Period (minutes)
Azimuth
Elevation
Range (km)
Doppler Factor

Next 0 passes for location: London (51.5072 / 0.1276)

Sorry there are no passes over London.